User: anonymous   Login
Location: Clinton NY
(43.0598°N, 75.3602°W)
Time: 01:18:44
(UTC-04:00)
Language:

Iridium 42 - Orbit

View from above orbital plane
View from above orbital plane
View from above satellite
View from above satellite

Ground track
Ground track

The orbit data is extracted from the following two-line orbital elements,

1 25077U 97077A   16270.52014646  .00000150  00000-0  46174-4 0  9997
2 25077  86.3965 132.1930 0002250  85.6234 274.5218 14.34502812984398
Epoch (UTC): 26 September 2016 12:29:00
Eccentricity: 0.0002250
inclination: 86.3965°
perigee height: 775 km
apogee height: 778 km
right ascension of ascending node: 132.1930°
argument of perigee: 85.6234°
revolutions per day: 14.34502812
mean anomaly at epoch: 274.5218°
orbit number at epoch: 98439

The dashed part of the orbit path shows where the satellite is in the earth's shadow,  

DLR